| time (UTC) | temp F | wind direction | speed MPH | gust MPH | rain 1hr in | rain 24hr in | rain mn in | humidity % | barometer mb |
| 20260509005406 | 75 | 146 | 0.0 | 2.0 | 0.00 | 0.00 | 0.02 | 86 | 1004.9 |
| 20260509004406 | 75 | 146 | 0.0 | 1.0 | 0.00 | 0.00 | 0.02 | 85 | 1005.1 |
| 20260509003405 | 75 | 146 | 0.0 | 0.0 | 0.00 | 0.00 | 0.02 | 85 | 1005.1 |
| 20260509002405 | 75 | 146 | 0.0 | 1.0 | 0.00 | 0.00 | 0.02 | 85 | 1005.1 |
| 20260509001406 | 75 | 146 | 0.0 | 0.0 | 0.00 | 0.00 | 0.02 | 85 | 1005.1 |
| 20260509000410 | 75 | 146 | 0.0 | 0.0 | 0.00 | 0.00 | 0.02 | 85 | 1005.1 |
| 20260508235405 | 75 | 146 | 0.0 | 0.0 | 0.00 | 0.00 | 0.02 | 85 | 1005.0 |
| 20260508234406 | 75 | 146 | 0.0 | 1.0 | 0.00 | 0.00 | 0.02 | 85 | 1005.0 |
| 20260508233405 | 75 | 146 | 1.0 | 1.0 | 0.00 | 0.00 | 0.02 | 85 | 1005.0 |
| 20260508232405 | 75 | 146 | 0.0 | 0.0 | 0.00 | 0.00 | 0.02 | 84 | 1005.4 |
| 20260508231405 | 75 | 146 | 0.0 | 0.0 | 0.00 | 0.00 | 0.02 | 84 | 1005.5 |
| 20260508230405 | 75 | 146 | 0.0 | 2.0 | 0.00 | 0.00 | 0.02 | 83 | 1005.5 |
| 20260508225406 | 76 | 146 | 0.0 | 1.0 | 0.00 | 0.00 | 0.02 | 83 | 1005.4 |
| 20260508224405 | 76 | 146 | 0.0 | 2.0 | 0.00 | 0.00 | 0.02 | 83 | 1005.2 |
| 20260508223405 | 76 | 146 | 0.0 | 2.0 | 0.00 | 0.00 | 0.02 | 83 | 1005.2 |
| 20260508222405 | 76 | 146 | 0.0 | 3.0 | 0.00 | 0.00 | 0.02 | 83 | 1005.4 |
| 20260508221405 | 76 | 146 | 0.0 | 1.0 | 0.00 | 0.00 | 0.02 | 82 | 1005.5 |
| 20260508220405 | 76 | 146 | 0.0 | 0.0 | 0.00 | 0.00 | 0.02 | 82 | 1005.5 |
| 20260508215406 | 76 | 146 | 0.0 | 2.0 | 0.00 | 0.00 | 0.02 | 82 | 1005.5 |
| 20260508214406 | 77 | 146 | 0.0 | 0.0 | 0.00 | 0.00 | 0.02 | 82 | 1005.5 |
| 20260508213406 | 77 | 146 | 0.0 | 1.0 | 0.00 | 0.00 | 0.02 | 83 | 1005.5 |
| 20260508212405 | 76 | 146 | 0.0 | 2.0 | 0.00 | 0.00 | 0.02 | 83 | 1005.9 |
| 20260508211409 | 76 | 146 | 0.0 | 1.0 | 0.00 | 0.00 | 0.02 | 83 | 1006.0 |
| 20260508210408 | 76 | 146 | 0.0 | 4.0 | 0.00 | 0.00 | 0.02 | 83 | 1006.0 |
| 20260508205405 | 76 | 146 | 0.0 | 1.0 | 0.00 | 0.00 | 0.02 | 83 | 1006.1 |
| 20260508204405 | 76 | 146 | 2.0 | 2.0 | 0.00 | 0.00 | 0.02 | 83 | 1006.1 |
| 20260508203405 | 76 | 146 | 0.0 | 3.0 | 0.00 | 0.00 | 0.02 | 84 | 1006.1 |
| 20260508202406 | 75 | 146 | 0.0 | 3.0 | 0.00 | 0.00 | 0.02 | 85 | 1006.1 |
| 20260508201405 | 75 | 23 | 0.0 | 3.0 | 0.00 | 0.00 | 0.02 | 86 | 1006.2 |
| 20260508200405 | 74 | 23 | 0.0 | 1.0 | 0.00 | 0.00 | 0.02 | 86 | 1006.2 |
| 20260508195405 | 74 | 23 | 0.0 | 1.0 | 0.00 | 0.00 | 0.02 | 87 | 1006.7 |
| 20260508194409 | 73 | 23 | 0.0 | 1.0 | 0.00 | 0.00 | 0.02 | 87 | 1007.1 |
| 20260508193406 | 73 | 23 | 0.0 | 1.0 | 0.00 | 0.00 | 0.02 | 87 | 1007.1 |
| 20260508192406 | 72 | 23 | 0.0 | 1.0 | 0.00 | 0.00 | 0.02 | 86 | 1007.4 |
| 20260508191406 | 72 | 23 | 0.0 | 1.0 | 0.00 | 0.00 | 0.02 | 86 | 1007.4 |
| 20260508190406 | 72 | 23 | 0.0 | 1.0 | 0.00 | 0.00 | 0.02 | 86 | 1007.4 |
| 20260508185409 | 72 | 23 | 0.0 | 0.0 | 0.00 | 0.00 | 0.02 | 86 | 1007.1 |
| 20260508184408 | 72 | 23 | 0.0 | 2.0 | 0.00 | 0.00 | 0.02 | 86 | 1007.2 |
| 20260508183405 | 72 | 23 | 0.0 | 2.0 | 0.00 | 0.00 | 0.02 | 86 | 1007.2 |
| 20260508182405 | 72 | 23 | 0.0 | 2.0 | 0.00 | 0.00 | 0.02 | 86 | 1007.2 |
| 20260508181409 | 72 | 23 | 2.0 | 2.0 | 0.00 | 0.00 | 0.02 | 86 | 1007.6 |
| 20260508180405 | 72 | 23 | 0.0 | 1.0 | 0.00 | 0.00 | 0.02 | 85 | 1007.6 |
| 20260508175405 | 72 | 23 | 0.0 | 0.0 | 0.00 | 0.00 | 0.01 | 85 | 1008.1 |
| 20260508174405 | 72 | 23 | 0.0 | 0.0 | 0.00 | 0.00 | 0.01 | 84 | 1008.1 |
| 20260508173409 | 71 | 23 | 0.0 | 0.0 | 0.00 | 0.00 | 0.00 | 83 | 1008.1 |
| 20260508172405 | 71 | 23 | 0.0 | 1.0 | 0.00 | 0.00 | 0.00 | 83 | 1008.1 |
| 20260508171405 | 71 | 22 | 0.0 | 1.0 | 0.00 | 0.00 | 0.00 | 82 | 1008.2 |
| 20260508170405 | 71 | 22 | 1.0 | 1.0 | 0.00 | 0.00 | 0.00 | 82 | 1008.2 |
| 20260508165406 | 71 | 23 | 0.0 | 3.0 | 0.00 | 0.00 | 0.00 | 82 | 1008.5 |
| 20260508164405 | 71 | 23 | 0.0 | 1.0 | 0.00 | 0.00 | 0.00 | 82 | 1008.7 |
| 20260508163405 | 71 | 22 | 0.0 | 1.0 | 0.00 | 0.00 | 0.00 | 82 | 1008.7 |
| 20260508162405 | 71 | 22 | 1.0 | 2.0 | 0.00 | 0.00 | 0.00 | 82 | 1008.3 |
| 20260508161408 | 70 | 22 | 1.0 | 2.0 | 0.00 | 0.00 | 0.00 | 82 | 1008.8 |
| 20260508160405 | 70 | 22 | 0.0 | 1.0 | 0.00 | 0.00 | 0.00 | 82 | 1008.8 |
| 20260508155408 | 69 | 22 | 0.0 | 2.0 | 0.00 | 0.00 | 0.00 | 82 | 1009.1 |
| 20260508154405 | 69 | 22 | 0.0 | 2.0 | 0.00 | 0.00 | 0.00 | 82 | 1009.1 |
| 20260508153408 | 69 | 23 | 1.0 | 3.0 | 0.00 | 0.00 | 0.00 | 82 | 1009.0 |
| 20260508152405 | 69 | 22 | 1.0 | 7.0 | 0.00 | 0.00 | 0.00 | 83 | 1009.0 |
| 20260508151405 | 69 | 15 | 0.0 | 3.0 | 0.00 | 0.00 | 0.00 | 83 | 1009.2 |
| 20260508150405 | 70 | 15 | 0.0 | 5.0 | 0.00 | 0.00 | 0.00 | 83 | 1009.2 |
| 20260508145405 | 70 | 15 | 0.0 | 3.0 | 0.00 | 0.00 | 0.00 | 83 | 1009.2 |
| 20260508144405 | 70 | 15 | 0.0 | 2.0 | 0.00 | 0.00 | 0.00 | 83 | 1009.2 |
| 20260508143405 | 70 | 15 | 0.0 | 0.0 | 0.00 | 0.00 | 0.00 | 83 | 1009.2 |
| 20260508142405 | 70 | 15 | 0.0 | 3.0 | 0.00 | 0.00 | 0.00 | 83 | 1008.8 |
| 20260508141405 | 70 | 15 | 0.0 | 1.0 | 0.00 | 0.00 | 0.00 | 82 | 1009.2 |
| 20260508140405 | 70 | 15 | 0.0 | 2.0 | 0.00 | 0.00 | 0.00 | 82 | 1009.2 |
| 20260508135405 | 70 | 15 | 0.0 | 0.0 | 0.00 | 0.00 | 0.00 | 82 | 1008.9 |
| 20260508134405 | 70 | 15 | 0.0 | 1.0 | 0.00 | 0.00 | 0.00 | 82 | 1008.7 |
| 20260508133408 | 70 | 15 | 0.0 | 1.0 | 0.00 | 0.00 | 0.00 | 82 | 1008.7 |
| 20260508132405 | 70 | 15 | 0.0 | 1.0 | 0.00 | 0.00 | 0.00 | 82 | 1009.1 |
| 20260508131405 | 0 | 0 | 0.0 | 0.0 | 0.00 | 0.00 | 0.00 | 100 | 1008.5 |
| 20260508130405 | 0 | 0 | 0.0 | 0.0 | 0.00 | 0.00 | 0.00 | 100 | 1008.5 |
| 20260508125405 | 0 | 0 | 0.0 | 0.0 | 0.00 | 0.00 | 0.00 | 100 | 1008.5 |
| 20260508124405 | 0 | 0 | 0.0 | 0.0 | 0.00 | 0.00 | 0.00 | 100 | 1008.5 |
| 20260508123405 | 0 | 0 | 0.0 | 0.0 | 0.00 | 0.00 | 0.00 | 100 | 1008.5 |
| 20260508122405 | 0 | 0 | 0.0 | 0.0 | 0.00 | 0.00 | 0.00 | 100 | 1008.1 |
| 20260508121405 | 0 | 0 | 0.0 | 0.0 | 0.00 | 0.00 | 0.00 | 100 | 1008.6 |
| 20260508120404 | 0 | 0 | 0.0 | 0.0 | 0.00 | 0.00 | 0.00 | 100 | 1008.6 |
| 20260508115405 | 0 | 0 | 0.0 | 0.0 | 0.00 | 0.00 | 0.00 | 100 | 1009.0 |
| 20260508114409 | 0 | 0 | 0.0 | 0.0 | 0.00 | 0.00 | 0.00 | 100 | 1008.6 |
| 20260508113404 | 0 | 0 | 0.0 | 0.0 | 0.00 | 0.00 | 0.00 | 100 | 1008.6 |
| 20260508112405 | 0 | 0 | 0.0 | 0.0 | 0.00 | 0.00 | 0.00 | 100 | 1008.0 |
| 20260508111408 | 0 | 0 | 0.0 | 0.0 | 0.00 | 0.00 | 0.00 | 100 | 1008.0 |
| 20260508110404 | 0 | 0 | 0.0 | 0.0 | 0.00 | 0.00 | 0.00 | 100 | 1008.0 |
| 20260508105404 | 0 | 0 | 0.0 | 0.0 | 0.00 | 0.00 | 0.00 | 100 | 1008.3 |
| 20260508104405 | 0 | 0 | 0.0 | 0.0 | 0.00 | 0.00 | 0.00 | 100 | 1008.0 |
| 20260508103404 | 0 | 0 | 0.0 | 0.0 | 0.00 | 0.00 | 0.00 | 100 | 1008.0 |
| 20260508102404 | 0 | 0 | 0.0 | 0.0 | 0.00 | 0.00 | 0.00 | 100 | 1008.0 |
| 20260508101405 | 0 | 0 | 0.0 | 0.0 | 0.00 | 0.00 | 0.00 | 100 | 1008.5 |
| 20260508100405 | 0 | 0 | 0.0 | 0.0 | 0.00 | 0.00 | 0.00 | 100 | 1008.5 |
| 20260508095406 | 0 | 0 | 0.0 | 0.0 | 0.00 | 0.00 | 0.00 | 100 | 1008.1 |
| 20260508094405 | 0 | 0 | 0.0 | 0.0 | 0.00 | 0.00 | 0.00 | 100 | 1008.1 |
| 20260508093404 | 0 | 0 | 0.0 | 0.0 | 0.00 | 0.00 | 0.00 | 100 | 1008.1 |
| 20260508092405 | 0 | 0 | 0.0 | 0.0 | 0.00 | 0.00 | 0.00 | 100 | 1007.5 |
| 20260508091405 | 0 | 0 | 0.0 | 0.0 | 0.00 | 0.00 | 0.00 | 100 | 1007.6 |
| 20260508090405 | 0 | 0 | 0.0 | 0.0 | 0.00 | 0.00 | 0.00 | 100 | 1007.6 |
| 20260508085405 | 0 | 0 | 0.0 | 0.0 | 0.00 | 0.00 | 0.00 | 100 | 1007.9 |
| 20260508084405 | 0 | 0 | 0.0 | 0.0 | 0.00 | 0.00 | 0.00 | 100 | 1008.4 |
| 20260508083405 | 0 | 0 | 0.0 | 0.0 | 0.00 | 0.00 | 0.00 | 100 | 1008.4 |
| 20260508082404 | 0 | 0 | 0.0 | 0.0 | 0.00 | 0.00 | 0.00 | 100 | 1008.0 |
| 20260508081405 | 0 | 0 | 0.0 | 0.0 | 0.00 | 0.00 | 0.00 | 100 | 1008.0 |
| 20260508080408 | 0 | 0 | 0.0 | 0.0 | 0.00 | 0.00 | 0.00 | 100 | 1008.0 |
| 20260508075404 | 0 | 0 | 0.0 | 0.0 | 0.00 | 0.00 | 0.00 | 100 | 1008.5 |
| 20260508074405 | 0 | 0 | 0.0 | 0.0 | 0.00 | 0.00 | 0.00 | 100 | 1008.6 |
| 20260508073405 | 0 | 0 | 0.0 | 0.0 | 0.00 | 0.00 | 0.00 | 100 | 1008.6 |
| 20260508072405 | 0 | 0 | 0.0 | 0.0 | 0.00 | 0.00 | 0.00 | 100 | 1008.6 |
| 20260508071404 | 0 | 0 | 0.0 | 0.0 | 0.00 | 0.00 | 0.00 | 100 | 1008.6 |
| 20260508070404 | 0 | 0 | 0.0 | 0.0 | 0.00 | 0.00 | 0.00 | 100 | 1008.6 |
| 20260508065407 | 0 | 0 | 0.0 | 0.0 | 0.00 | 0.00 | 0.00 | 100 | 1009.0 |
| 20260508064404 | 0 | 0 | 0.0 | 0.0 | 0.00 | 0.00 | 0.00 | 100 | 1008.6 |
| 20260508063404 | 0 | 0 | 0.0 | 0.0 | 0.00 | 0.00 | 0.00 | 100 | 1008.6 |
| 20260508062408 | 0 | 0 | 0.0 | 0.0 | 0.00 | 0.00 | 0.00 | 100 | 1008.5 |
| 20260508061404 | 0 | 0 | 0.0 | 0.0 | 0.00 | 0.00 | 0.00 | 100 | 1008.5 |
| 20260508060407 | 0 | 0 | 0.0 | 0.0 | 0.00 | 0.00 | 0.00 | 100 | 1008.5 |
| 20260508055405 | 0 | 0 | 0.0 | 0.0 | 0.00 | 0.00 | 0.00 | 100 | 1008.7 |
| 20260508054404 | 0 | 0 | 0.0 | 0.0 | 0.00 | 0.00 | 0.00 | 100 | 1008.5 |
| 20260508053404 | 0 | 0 | 0.0 | 0.0 | 0.00 | 0.00 | 0.00 | 100 | 1008.5 |
| 20260508052404 | 0 | 0 | 0.0 | 0.0 | 0.00 | 0.00 | 0.00 | 100 | 1008.7 |
| 20260508051404 | 0 | 0 | 0.0 | 0.0 | 0.00 | 0.00 | 0.00 | 100 | 1008.7 |
| 20260508050404 | 0 | 0 | 0.0 | 0.0 | 0.00 | 0.00 | 0.00 | 100 | 1008.7 |
| 20260508045404 | 0 | 0 | 0.0 | 0.0 | 0.00 | 0.00 | 0.00 | 100 | 1008.9 |
| 20260508044404 | 0 | 0 | 0.0 | 0.0 | 0.00 | 0.00 | 0.00 | 100 | 1008.7 |
| 20260508043405 | 0 | 0 | 0.0 | 0.0 | 0.00 | 0.00 | 0.00 | 100 | 1008.7 |
| 20260508042405 | 0 | 0 | 0.0 | 0.0 | 0.00 | 0.00 | 0.00 | 100 | 1009.0 |
| 20260508041405 | 0 | 0 | 0.0 | 0.0 | 0.00 | 0.00 | 0.00 | 100 | 1009.1 |
| 20260508040405 | 0 | 0 | 0.0 | 0.0 | 0.00 | 0.00 | 0.00 | 100 | 1009.1 |
| 20260508035404 | 0 | 0 | 0.0 | 0.0 | 0.00 | 0.00 | 0.00 | 100 | 1007.7 |
| 20260508034408 | 0 | 0 | 0.0 | 0.0 | 0.00 | 0.00 | 0.00 | 100 | 1008.5 |
| 20260508033405 | 0 | 0 | 0.0 | 0.0 | 0.00 | 0.00 | 0.00 | 100 | 1008.5 |
| 20260508032404 | 0 | 0 | 0.0 | 0.0 | 0.00 | 0.00 | 0.00 | 100 | 1009.0 |
| 20260508031405 | 0 | 0 | 0.0 | 0.0 | 0.00 | 0.00 | 0.00 | 100 | 1009.1 |
| 20260508030404 | 0 | 0 | 0.0 | 0.0 | 0.00 | 0.00 | 0.00 | 100 | 1009.1 |
| 20260508025404 | 0 | 0 | 0.0 | 0.0 | 0.00 | 0.00 | 0.00 | 100 | 1009.1 |
| 20260508024408 | 0 | 0 | 0.0 | 0.0 | 0.00 | 0.00 | 0.00 | 100 | 1009.3 |
| 20260508023407 | 0 | 0 | 0.0 | 0.0 | 0.00 | 0.00 | 0.00 | 100 | 1009.3 |
| 20260508022404 | 0 | 0 | 0.0 | 0.0 | 0.00 | 0.00 | 0.00 | 100 | 1009.0 |
| 20260508021405 | 0 | 0 | 0.0 | 0.0 | 0.00 | 0.00 | 0.00 | 100 | 1008.9 |
| 20260508020404 | 0 | 0 | 0.0 | 0.0 | 0.00 | 0.00 | 0.00 | 100 | 1008.9 |
| 20260508015405 | 0 | 0 | 0.0 | 0.0 | 0.00 | 0.00 | 0.00 | 100 | 1009.0 |
| 20260508014404 | 0 | 0 | 0.0 | 0.0 | 0.00 | 0.00 | 0.00 | 100 | 1008.9 |
| 20260508013404 | 0 | 0 | 0.0 | 0.0 | 0.00 | 0.00 | 0.00 | 100 | 1008.9 |
| 20260508012504 | 0 | 0 | 0.0 | 0.0 | 0.00 | 0.00 | 0.00 | 100 | 1008.9 |
| 20260508011505 | 0 | 0 | 0.0 | 0.0 | 0.00 | 0.00 | 0.00 | 100 | 1008.9 |
| 20260508010504 | 0 | 0 | 0.0 | 0.0 | 0.00 | 0.00 | 0.00 | 100 | 1008.9 |